EUTELSAT 117 WEST B (41589 NORAD) Tracking and Keplerian Element Data

This shows tracking and keplerian element data for the satellite.

Feedback or suggestion? Click here.




ElementValue
Catalog41589
NameEUTELSAT 117 WEST B
Epoch Orbit1933
Epoch Day262.1319381
Epoch Year2021
RAAN12.4752
Inclination0.0415
Eccentricity2.22E-05
Argument of Perigee61.8073
Mean Anonmoly214.4715
Mean Motion1.00272306
Decay Rate-3.5E-07
L11 41589U 16038B 21262.13193810 -.00000035 00000-0 00000+0 0 9992
L22 41589 0.0415 12.4752 0000222 61.8073 214.4715 1.00272306 19332

Live tracking and technical data element details for EUTELSAT 117 WEST B (NORAD 41589). EUTELSAT 117 WEST B can be tracked NOW for your location showing map with azimuth and elevation plus other details from your city location.

Track the satellite on the map from your city or location and see movement details for azimuth, elevation, latitude, longitude, range, height, and movement on the map or in text.







IsCatalogInMostPopularTable: catalog: 41589, numindb: 571
Update: records affected: 1



GetName: 41589 EUTELSAT 117 WEST B

Hit Count: updated at: Sun, 26 Sep 2021 00:25:19 GMT